| time (UTC) | temp C | wind direction | speed KPH | gust KPH | rain 1hr cm | rain 24hr cm | rain mn cm | humidity % | barometer mb |
| 20260507105559 | 2 | 181 | 11.3 | 22.5 | 0.00 | 0.94 | 0.00 | 91 | 1017.2 |
| 20260507105059 | 2 | 151 | 11.3 | 20.9 | 0.00 | 0.94 | 0.00 | 92 | 1017.1 |
| 20260507104601 | 2 | 164 | 8.0 | 17.7 | 0.00 | 0.94 | 0.00 | 91 | 1017.1 |
| 20260507104103 | 2 | 178 | 8.0 | 17.7 | 0.00 | 0.94 | 0.00 | 91 | 1017.1 |
| 20260507103559 | 2 | 220 | 6.4 | 20.9 | 0.00 | 0.94 | 0.00 | 91 | 1017.1 |
| 20260507103058 | 2 | 169 | 9.7 | 20.9 | 0.00 | 0.94 | 0.00 | 91 | 1017.1 |
| 20260507102558 | 2 | 165 | 8.0 | 19.3 | 0.00 | 0.94 | 0.00 | 91 | 1017.0 |
| 20260507102057 | 2 | 146 | 8.0 | 19.3 | 0.00 | 0.94 | 0.00 | 91 | 1017.0 |
| 20260507101602 | 2 | 198 | 6.4 | 16.1 | 0.00 | 0.94 | 0.00 | 91 | 1017.0 |
| 20260507101057 | 2 | 204 | 6.4 | 16.1 | 0.00 | 0.94 | 0.00 | 91 | 1017.0 |
| 20260507100557 | 2 | 218 | 6.4 | 14.5 | 0.00 | 0.94 | 0.00 | 90 | 1016.9 |
| 20260507100059 | 2 | 227 | 6.4 | 14.5 | 0.00 | 0.94 | 0.00 | 90 | 1017.0 |
| 20260507095556 | 2 | 187 | 4.8 | 12.9 | 0.00 | 0.94 | 0.00 | 90 | 1017.1 |
| 20260507095058 | 2 | 211 | 8.0 | 19.3 | 0.00 | 0.94 | 0.00 | 90 | 1017.0 |
| 20260507094601 | 2 | 227 | 9.7 | 19.3 | 0.00 | 0.94 | 0.00 | 91 | 1017.1 |
| 20260507094059 | 2 | 189 | 8.0 | 16.1 | 0.00 | 0.94 | 0.00 | 91 | 1017.0 |
| 20260507093557 | 2 | 228 | 8.0 | 14.5 | 0.00 | 0.94 | 0.00 | 92 | 1017.0 |
| 20260507093057 | 2 | 188 | 8.0 | 17.7 | 0.00 | 0.94 | 0.00 | 92 | 1016.9 |
| 20260507092557 | 2 | 191 | 8.0 | 19.3 | 0.00 | 0.94 | 0.00 | 92 | 1016.8 |
| 20260507092056 | 2 | 205 | 6.4 | 19.3 | 0.00 | 0.94 | 0.00 | 91 | 1016.9 |
| 20260507091611 | 2 | 200 | 9.7 | 19.3 | 0.00 | 0.94 | 0.00 | 92 | 1016.9 |
| 20260507091056 | 2 | 205 | 9.7 | 19.3 | 0.00 | 0.94 | 0.00 | 92 | 1016.9 |
| 20260507090555 | 2 | 191 | 9.7 | 16.1 | 0.00 | 0.94 | 0.00 | 92 | 1016.7 |
| 20260507085555 | 2 | 195 | 9.7 | 24.1 | 0.00 | 0.94 | 0.00 | 92 | 1016.7 |
| 20260507085056 | 2 | 182 | 8.0 | 20.9 | 0.00 | 0.94 | 0.00 | 92 | 1016.6 |
| 20260507084603 | 2 | 238 | 6.4 | 22.5 | 0.00 | 0.94 | 0.00 | 92 | 1016.5 |
| 20260507084056 | 2 | 183 | 9.7 | 22.5 | 0.00 | 0.94 | 0.00 | 92 | 1016.5 |
| 20260507083556 | 2 | 188 | 11.3 | 22.5 | 0.03 | 0.94 | 0.00 | 92 | 1016.4 |
| 20260507083059 | 2 | 209 | 4.8 | 17.7 | 0.03 | 0.94 | 0.00 | 92 | 1016.3 |
| 20260507082556 | 2 | 231 | 8.0 | 17.7 | 0.05 | 0.94 | 0.00 | 92 | 1016.3 |
| 20260507082056 | 2 | 229 | 4.8 | 16.1 | 0.05 | 0.94 | 0.00 | 92 | 1016.2 |
| 20260507081556 | 2 | 213 | 6.4 | 20.9 | 0.08 | 0.94 | 0.00 | 92 | 1016.2 |
| 20260507081057 | 2 | 227 | 4.8 | 20.9 | 0.10 | 0.94 | 0.00 | 92 | 1016.3 |
| 20260507080557 | 2 | 205 | 8.0 | 19.3 | 0.13 | 0.94 | 0.00 | 92 | 1016.3 |
| 20260507080109 | 2 | 163 | 3.2 | 11.3 | 0.13 | 0.94 | 0.00 | 93 | 1016.2 |
| 20260507075557 | 2 | 156 | 3.2 | 11.3 | 0.15 | 0.94 | 0.94 | 93 | 1016.1 |
| 20260507075057 | 2 | 198 | 1.6 | 11.3 | 0.18 | 0.94 | 0.94 | 93 | 1016.1 |
| 20260507074607 | 2 | 219 | 4.8 | 14.5 | 0.18 | 0.94 | 0.94 | 93 | 1016.1 |
| 20260507074056 | 2 | 245 | 6.4 | 14.5 | 0.20 | 0.94 | 0.94 | 93 | 1016.1 |
| 20260507073558 | 2 | 247 | 1.6 | 9.7 | 0.20 | 0.91 | 0.91 | 92 | 1016.1 |
| 20260507073136 | 2 | 298 | 3.2 | 6.4 | 0.23 | 0.91 | 0.91 | 92 | 1016.1 |
| 20260507072557 | 2 | 318 | 1.6 | 8.0 | 0.23 | 0.89 | 0.89 | 92 | 1016.1 |
| 20260507072056 | 2 | 318 | 1.6 | 9.7 | 0.25 | 0.89 | 0.89 | 92 | 1016.0 |
| 20260507071604 | 2 | 293 | 4.8 | 9.7 | 0.25 | 0.86 | 0.86 | 92 | 1016.0 |
| 20260507071059 | 2 | 274 | 1.6 | 12.9 | 0.25 | 0.84 | 0.84 | 92 | 1015.9 |
| 20260507070557 | 2 | 203 | 0.0 | 14.5 | 0.25 | 0.81 | 0.81 | 91 | 1015.9 |
| 20260507070058 | 2 | 207 | 6.4 | 14.5 | 0.28 | 0.81 | 0.81 | 91 | 1015.8 |
| 20260507065556 | 2 | 169 | 4.8 | 11.3 | 0.28 | 0.79 | 0.79 | 91 | 1015.9 |
| 20260507065058 | 2 | 162 | 4.8 | 12.9 | 0.25 | 0.76 | 0.76 | 91 | 1015.8 |
| 20260507064612 | 2 | 190 | 4.8 | 12.9 | 0.25 | 0.76 | 0.76 | 91 | 1015.8 |
| 20260507064057 | 2 | 159 | 3.2 | 8.0 | 0.23 | 0.74 | 0.74 | 92 | 1015.7 |
| 20260507063557 | 2 | 141 | 1.6 | 8.0 | 0.23 | 0.71 | 0.71 | 92 | 1015.7 |
| 20260507063117 | 2 | 169 | 1.6 | 9.7 | 0.20 | 0.69 | 0.69 | 91 | 1015.7 |
| 20260507062556 | 2 | 0 | 1.6 | 9.7 | 0.18 | 0.66 | 0.66 | 91 | 1015.7 |
| 20260507062057 | 2 | 170 | 4.8 | 9.7 | 0.18 | 0.64 | 0.64 | 92 | 1015.7 |
| 20260507061556 | 2 | 117 | 3.2 | 6.4 | 0.15 | 0.61 | 0.61 | 92 | 1015.5 |
| 20260507061059 | 2 | 117 | 3.2 | 6.4 | 0.13 | 0.58 | 0.58 | 92 | 1015.5 |
| 20260507060557 | 2 | 113 | 3.2 | 6.4 | 0.10 | 0.56 | 0.56 | 92 | 1015.5 |
| 20260507060059 | 2 | 150 | 1.6 | 4.8 | 0.08 | 0.53 | 0.53 | 92 | 1015.4 |
| 20260507055557 | 2 | 0 | 1.6 | 4.8 | 0.05 | 0.51 | 0.51 | 92 | 1015.4 |
| 20260507055056 | 2 | 178 | 0.0 | 4.8 | 0.05 | 0.51 | 0.51 | 92 | 1015.3 |
| 20260507054559 | 2 | 178 | 1.6 | 4.8 | 0.08 | 0.51 | 0.51 | 92 | 1015.2 |
| 20260507054057 | 2 | 178 | 0.0 | 3.2 | 0.08 | 0.51 | 0.51 | 92 | 1015.3 |
| 20260507053557 | 3 | 0 | 0.0 | 3.2 | 0.08 | 0.48 | 0.48 | 92 | 1015.2 |
| 20260507053104 | 3 | 179 | 0.0 | 3.2 | 0.08 | 0.48 | 0.48 | 92 | 1015.1 |
| 20260507052556 | 3 | 0 | 0.0 | 3.2 | 0.10 | 0.48 | 0.48 | 92 | 1015.2 |
| 20260507052057 | 3 | 179 | 0.0 | 3.2 | 0.08 | 0.46 | 0.46 | 92 | 1015.2 |
| 20260507051602 | 3 | 0 | 1.6 | 4.8 | 0.13 | 0.46 | 0.46 | 92 | 1015.1 |
| 20260507051059 | 3 | 0 | 0.0 | 6.4 | 0.20 | 0.46 | 0.46 | 91 | 1015.0 |
| 20260507050558 | 3 | 0 | 1.6 | 6.4 | 0.25 | 0.46 | 0.46 | 91 | 1015.1 |
| 20260507050100 | 3 | 119 | 3.2 | 6.4 | 0.30 | 0.46 | 0.46 | 91 | 1015.0 |
| 20260507045557 | 3 | 134 | 3.2 | 6.4 | 0.36 | 0.46 | 0.46 | 91 | 1015.0 |
| 20260507045058 | 3 | 134 | 3.2 | 11.3 | 0.41 | 0.46 | 0.46 | 90 | 1015.0 |
| 20260507044609 | 2 | 135 | 4.8 | 12.9 | 0.41 | 0.43 | 0.43 | 90 | 1015.0 |
| 20260507044057 | 2 | 135 | 6.4 | 16.1 | 0.41 | 0.43 | 0.43 | 90 | 1015.0 |
| 20260507043557 | 2 | 128 | 8.0 | 16.1 | 0.38 | 0.41 | 0.41 | 90 | 1015.0 |
| 20260507043058 | 2 | 130 | 11.3 | 16.1 | 0.38 | 0.41 | 0.41 | 90 | 1015.0 |
| 20260507042554 | 2 | 117 | 8.0 | 16.1 | 0.36 | 0.38 | 0.38 | 90 | 1015.0 |
| 20260507042059 | 2 | 140 | 9.7 | 16.1 | 0.36 | 0.38 | 0.38 | 90 | 1015.1 |
| 20260507041618 | 2 | 132 | 6.4 | 17.7 | 0.33 | 0.33 | 0.33 | 89 | 1015.2 |
| 20260507041059 | 2 | 141 | 9.7 | 22.5 | 0.25 | 0.25 | 0.25 | 89 | 1015.2 |
| 20260507040559 | 3 | 167 | 9.7 | 22.5 | 0.20 | 0.20 | 0.20 | 88 | 1015.2 |
| 20260507040106 | 3 | 143 | 12.9 | 22.5 | 0.15 | 0.15 | 0.15 | 87 | 1015.3 |
| 20260507035558 | 3 | 173 | 9.7 | 27.4 | 0.10 | 0.10 | 0.10 | 87 | 1015.2 |
| 20260507035058 | 4 | 227 | 11.3 | 27.4 | 0.05 | 0.05 | 0.05 | 85 | 1015.1 |
| 20260507034618 | 5 | 214 | 9.7 | 25.7 | 0.03 | 0.03 | 0.03 | 83 | 1015.0 |
| 20260507034102 | 5 | 250 | 8.0 | 25.7 | 0.03 | 0.03 | 0.03 | 79 | 1014.8 |
| 20260507033558 | 6 | 229 | 8.0 | 20.9 | 0.03 | 0.03 | 0.03 | 73 | 1014.6 |
| 20260507033107 | 6 | 238 | 4.8 | 11.3 | 0.03 | 0.03 | 0.03 | 74 | 1014.5 |
| 20260507032559 | 6 | 0 | 4.8 | 16.1 | 0.03 | 0.03 | 0.03 | 73 | 1014.3 |
| 20260507032055 | 6 | 198 | 4.8 | 16.1 | 0.03 | 0.03 | 0.03 | 74 | 1014.1 |
| 20260507031559 | 6 | 153 | 6.4 | 19.3 | 0.00 | 0.00 | 0.00 | 74 | 1014.1 |
| 20260507031057 | 6 | 143 | 11.3 | 19.3 | 0.00 | 0.00 | 0.00 | 72 | 1014.1 |
| 20260507030554 | 6 | 0 | 4.8 | 19.3 | 0.00 | 0.00 | 0.00 | 74 | 1014.0 |
| 20260507025558 | 6 | 286 | 1.6 | 4.8 | 0.00 | 0.00 | 0.00 | 77 | 1014.0 |
| 20260507025055 | 6 | 0 | 0.0 | 8.0 | 0.00 | 0.00 | 0.00 | 78 | 1014.0 |
| 20260507024605 | 6 | 0 | 3.2 | 11.3 | 0.00 | 0.00 | 0.00 | 76 | 1013.9 |
| 20260507024100 | 6 | 282 | 3.2 | 11.3 | 0.00 | 0.00 | 0.00 | 73 | 1014.0 |
| 20260507023600 | 6 | 226 | 1.6 | 16.1 | 0.00 | 0.00 | 0.00 | 70 | 1013.8 |
| 20260507023058 | 6 | 146 | 9.7 | 16.1 | 0.00 | 0.00 | 0.00 | 70 | 1013.9 |
| 20260507022601 | 6 | 138 | 6.4 | 12.9 | 0.00 | 0.00 | 0.00 | 70 | 1013.9 |
| 20260507022102 | 6 | 97 | 4.8 | 11.3 | 0.00 | 0.00 | 0.00 | 70 | 1013.9 |
| 20260507021608 | 6 | 194 | 4.8 | 14.5 | 0.00 | 0.00 | 0.00 | 69 | 1013.9 |
| 20260507021100 | 6 | 209 | 6.4 | 16.1 | 0.00 | 0.00 | 0.00 | 70 | 1013.8 |
| 20260507020601 | 6 | 157 | 4.8 | 16.1 | 0.00 | 0.00 | 0.00 | 72 | 1013.8 |
| 20260507020058 | 6 | 184 | 6.4 | 14.5 | 0.00 | 0.00 | 0.00 | 72 | 1013.7 |
| 20260507015600 | 6 | 308 | 1.6 | 6.4 | 0.00 | 0.00 | 0.00 | 78 | 1013.8 |
| 20260507015101 | 6 | 5 | 1.6 | 6.4 | 0.00 | 0.00 | 0.00 | 78 | 1013.7 |
| 20260507014600 | 6 | 17 | 3.2 | 6.4 | 0.00 | 0.00 | 0.00 | 79 | 1013.6 |
| 20260507014103 | 6 | 304 | 3.2 | 8.0 | 0.00 | 0.00 | 0.00 | 81 | 1013.7 |
| 20260507013601 | 6 | 315 | 3.2 | 8.0 | 0.00 | 0.00 | 0.00 | 78 | 1013.6 |
| 20260507013115 | 6 | 327 | 1.6 | 8.0 | 0.00 | 0.00 | 0.00 | 80 | 1013.6 |
| 20260507012604 | 6 | 58 | 1.6 | 6.4 | 0.00 | 0.00 | 0.00 | 81 | 1013.6 |
| 20260507012101 | 6 | 91 | 1.6 | 9.7 | 0.00 | 0.00 | 0.00 | 82 | 1013.6 |
| 20260507011601 | 6 | 0 | 3.2 | 11.3 | 0.00 | 0.00 | 0.00 | 80 | 1013.6 |
| 20260507011100 | 5 | 136 | 4.8 | 19.3 | 0.00 | 0.00 | 0.00 | 79 | 1013.7 |
| 20260507010601 | 6 | 196 | 6.4 | 19.3 | 0.00 | 0.00 | 0.00 | 77 | 1013.7 |
| 20260507005605 | 6 | 240 | 3.2 | 11.3 | 0.00 | 0.00 | 0.00 | 81 | 1013.6 |
| 20260507005100 | 5 | 53 | 4.8 | 11.3 | 0.00 | 0.00 | 0.00 | 82 | 1013.5 |
| 20260507004600 | 5 | 105 | 1.6 | 8.0 | 0.00 | 0.00 | 0.00 | 82 | 1013.5 |
| 20260507004100 | 5 | 306 | 1.6 | 12.9 | 0.00 | 0.00 | 0.00 | 82 | 1013.4 |
| 20260507003603 | 5 | 0 | 3.2 | 17.7 | 0.00 | 0.00 | 0.00 | 81 | 1013.4 |
| 20260507003105 | 5 | 294 | 6.4 | 17.7 | 0.00 | 0.00 | 0.00 | 81 | 1013.6 |
| 20260507002600 | 5 | 294 | 9.7 | 14.5 | 0.00 | 0.00 | 0.00 | 81 | 1013.6 |
| 20260507002101 | 5 | 286 | 6.4 | 14.5 | 0.00 | 0.00 | 0.00 | 80 | 1013.5 |
| 20260507001611 | 5 | 334 | 4.8 | 14.5 | 0.00 | 0.00 | 0.00 | 78 | 1013.5 |
| 20260507001056 | 5 | 282 | 3.2 | 11.3 | 0.00 | 0.00 | 0.00 | 80 | 1013.4 |
| 20260507000557 | 5 | 269 | 6.4 | 16.1 | 0.00 | 0.00 | 0.00 | 80 | 1013.4 |
| 20260507000101 | 5 | 242 | 9.7 | 16.1 | 0.00 | 0.00 | 0.00 | 79 | 1013.4 |
| 20260506235601 | 5 | 246 | 6.4 | 14.5 | 0.00 | 0.00 | 0.00 | 81 | 1013.4 |
| 20260506235100 | 5 | 296 | 4.8 | 11.3 | 0.00 | 0.00 | 0.00 | 78 | 1013.4 |
| 20260506234609 | 5 | 297 | 4.8 | 14.5 | 0.00 | 0.00 | 0.00 | 79 | 1013.3 |
| 20260506234102 | 5 | 15 | 4.8 | 14.5 | 0.00 | 0.00 | 0.00 | 82 | 1013.3 |
| 20260506233558 | 5 | 263 | 6.4 | 14.5 | 0.00 | 0.00 | 0.00 | 82 | 1013.4 |
| 20260506233104 | 5 | 265 | 4.8 | 16.1 | 0.00 | 0.00 | 0.00 | 82 | 1013.3 |
| 20260506232557 | 5 | 259 | 8.0 | 27.4 | 0.00 | 0.00 | 0.00 | 83 | 1013.3 |
| 20260506232100 | 5 | 290 | 8.0 | 27.4 | 0.00 | 0.00 | 0.00 | 82 | 1013.1 |
| 20260506231559 | 6 | 280 | 16.1 | 27.4 | 0.00 | 0.00 | 0.00 | 75 | 1013.2 |
| 20260506231058 | 6 | 280 | 14.5 | 22.5 | 0.00 | 0.00 | 0.00 | 73 | 1013.0 |
| 20260506230558 | 6 | 255 | 12.9 | 20.9 | 0.00 | 0.00 | 0.00 | 72 | 1012.8 |
| 20260506230058 | 6 | 257 | 9.7 | 17.7 | 0.00 | 0.00 | 0.00 | 72 | 1012.9 |
| 20260506225601 | 6 | 251 | 8.0 | 16.1 | 0.00 | 0.00 | 0.00 | 71 | 1013.0 |
| 20260506225057 | 6 | 257 | 8.0 | 20.9 | 0.00 | 0.00 | 0.00 | 72 | 1012.8 |
| 20260506224618 | 6 | 225 | 9.7 | 20.9 | 0.00 | 0.00 | 0.00 | 72 | 1012.8 |
| 20260506224231 | 6 | 257 | 14.5 | 24.1 | 0.00 | 0.00 | 0.00 | 72 | 1012.8 |
| 20260506224100 | 6 | 257 | 14.5 | 24.1 | 0.00 | 0.00 | 0.00 | 72 | 1012.8 |
| 20260506223600 | 6 | 267 | 11.3 | 24.1 | 0.00 | 0.00 | 0.00 | 70 | 1012.8 |
| 20260506223103 | 7 | 248 | 11.3 | 20.9 | 0.00 | 0.00 | 0.00 | 66 | 1012.7 |
| 20260506222600 | 8 | 207 | 4.8 | 17.7 | 0.00 | 0.00 | 0.00 | 58 | 1012.8 |
| 20260506222100 | 8 | 156 | 6.4 | 22.5 | 0.00 | 0.00 | 0.00 | 58 | 1012.7 |
| 20260506221559 | 8 | 192 | 9.7 | 22.5 | 0.00 | 0.00 | 0.00 | 58 | 1012.7 |
| 20260506221100 | 8 | 150 | 3.2 | 11.3 | 0.00 | 0.00 | 0.00 | 59 | 1012.6 |
| 20260506220556 | 8 | 67 | 3.2 | 12.9 | 0.00 | 0.00 | 0.00 | 60 | 1012.5 |
| 20260506220109 | 7 | 179 | 4.8 | 12.9 | 0.00 | 0.00 | 0.00 | 60 | 1012.7 |
| 20260506215557 | 7 | 0 | 1.6 | 8.0 | 0.00 | 0.00 | 0.00 | 67 | 1012.7 |
| 20260506215057 | 7 | 319 | 3.2 | 8.0 | 0.00 | 0.00 | 0.00 | 67 | 1012.6 |
| 20260506214559 | 7 | 302 | 1.6 | 14.5 | 0.00 | 0.00 | 0.00 | 67 | 1012.4 |
| 20260506214057 | 7 | 131 | 4.8 | 14.5 | 0.00 | 0.00 | 0.00 | 68 | 1012.5 |
| 20260506213559 | 7 | 66 | 4.8 | 14.5 | 0.00 | 0.00 | 0.00 | 69 | 1012.4 |
| 20260506213058 | 7 | 327 | 4.8 | 14.5 | 0.00 | 0.00 | 0.00 | 67 | 1012.4 |
| 20260506212557 | 7 | 317 | 3.2 | 11.3 | 0.00 | 0.00 | 0.00 | 67 | 1012.5 |
| 20260506212057 | 7 | 55 | 1.6 | 6.4 | 0.00 | 0.00 | 0.00 | 69 | 1012.4 |
| 20260506211603 | 7 | 0 | 1.6 | 14.5 | 0.00 | 0.00 | 0.00 | 68 | 1012.3 |
| 20260506211057 | 7 | 32 | 3.2 | 14.5 | 0.00 | 0.00 | 0.00 | 69 | 1012.3 |
| 20260506210557 | 7 | 317 | 1.6 | 8.0 | 0.00 | 0.00 | 0.00 | 69 | 1012.2 |
| 20260506210103 | 7 | 0 | 0.0 | 11.3 | 0.00 | 0.00 | 0.00 | 67 | 1012.2 |
| 20260506205556 | 7 | 254 | 3.2 | 11.3 | 0.00 | 0.00 | 0.00 | 69 | 1012.3 |
| 20260506205056 | 7 | 279 | 3.2 | 11.3 | 0.00 | 0.00 | 0.00 | 68 | 1012.1 |
| 20260506204559 | 7 | 336 | 4.8 | 12.9 | 0.00 | 0.00 | 0.00 | 69 | 1012.1 |
| 20260506204057 | 7 | 330 | 6.4 | 12.9 | 0.00 | 0.00 | 0.00 | 71 | 1012.1 |
| 20260506203559 | 6 | 355 | 6.4 | 14.5 | 0.00 | 0.00 | 0.00 | 73 | 1012.1 |
| 20260506203101 | 6 | 310 | 8.0 | 14.5 | 0.00 | 0.00 | 0.00 | 73 | 1012.1 |
| 20260506202557 | 7 | 290 | 6.4 | 12.9 | 0.00 | 0.00 | 0.00 | 72 | 1012.1 |
| 20260506202057 | 7 | 287 | 4.8 | 14.5 | 0.00 | 0.00 | 0.00 | 72 | 1012.0 |
| 20260506201559 | 7 | 325 | 6.4 | 14.5 | 0.00 | 0.00 | 0.00 | 73 | 1012.0 |
| 20260506201057 | 7 | 309 | 4.8 | 12.9 | 0.00 | 0.00 | 0.00 | 73 | 1012.0 |
| 20260506200600 | 7 | 19 | 3.2 | 9.7 | 0.00 | 0.00 | 0.00 | 74 | 1012.0 |
| 20260506200107 | 6 | 296 | 1.6 | 6.4 | 0.00 | 0.00 | 0.00 | 77 | 1011.9 |
| 20260506195556 | 6 | 281 | 1.6 | 6.4 | 0.00 | 0.00 | 0.00 | 78 | 1011.8 |
| 20260506195057 | 6 | 0 | 3.2 | 12.9 | 0.00 | 0.00 | 0.00 | 78 | 1011.9 |
| 20260506194601 | 6 | 0 | 1.6 | 12.9 | 0.00 | 0.00 | 0.00 | 77 | 1011.9 |
| 20260506194056 | 6 | 312 | 4.8 | 12.9 | 0.00 | 0.00 | 0.00 | 77 | 1011.8 |
| 20260506193556 | 6 | 308 | 4.8 | 12.9 | 0.00 | 0.00 | 0.00 | 77 | 1011.8 |
| 20260506193110 | 6 | 346 | 6.4 | 12.9 | 0.00 | 0.00 | 0.00 | 76 | 1011.8 |
| 20260506192557 | 6 | 0 | 3.2 | 9.7 | 0.00 | 0.00 | 0.00 | 76 | 1011.8 |
| 20260506192056 | 6 | 338 | 3.2 | 12.9 | 0.00 | 0.00 | 0.00 | 77 | 1011.9 |
| 20260506191557 | 6 | 267 | 4.8 | 12.9 | 0.00 | 0.00 | 0.00 | 76 | 1011.8 |
| 20260506191055 | 6 | 296 | 6.4 | 11.3 | 0.00 | 0.00 | 0.00 | 75 | 1011.8 |
| 20260506190609 | 6 | 310 | 3.2 | 11.3 | 0.00 | 0.00 | 0.00 | 74 | 1011.8 |
| 20260506190059 | 6 | 355 | 6.4 | 14.5 | 0.00 | 0.00 | 0.00 | 75 | 1011.8 |
| 20260506185600 | 6 | 0 | 3.2 | 14.5 | 0.00 | 0.00 | 0.00 | 76 | 1011.8 |
| 20260506185100 | 5 | 321 | 3.2 | 11.3 | 0.00 | 0.00 | 0.00 | 78 | 1011.7 |
| 20260506184606 | 5 | 325 | 3.2 | 12.9 | 0.00 | 0.00 | 0.00 | 77 | 1011.8 |
| 20260506184059 | 5 | 51 | 3.2 | 12.9 | 0.00 | 0.00 | 0.00 | 78 | 1011.8 |
| 20260506183600 | 5 | 338 | 4.8 | 12.9 | 0.00 | 0.00 | 0.00 | 77 | 1011.8 |
| 20260506183103 | 5 | 329 | 1.6 | 8.0 | 0.00 | 0.00 | 0.00 | 77 | 1011.8 |
| 20260506182559 | 5 | 329 | 3.2 | 9.7 | 0.00 | 0.00 | 0.00 | 77 | 1011.7 |
| 20260506182100 | 5 | 46 | 3.2 | 9.7 | 0.00 | 0.00 | 0.00 | 78 | 1011.7 |
| 20260506181626 | 5 | 0 | 3.2 | 8.0 | 0.00 | 0.00 | 0.00 | 79 | 1011.6 |
| 20260506181100 | 4 | 27 | 1.6 | 8.0 | 0.00 | 0.00 | 0.00 | 79 | 1011.6 |
| 20260506180601 | 4 | 348 | 1.6 | 8.0 | 0.00 | 0.00 | 0.00 | 79 | 1011.6 |
| 20260506180059 | 4 | 310 | 3.2 | 8.0 | 0.00 | 0.00 | 0.00 | 80 | 1011.7 |
| 20260506175600 | 4 | 294 | 4.8 | 8.0 | 0.00 | 0.00 | 0.00 | 80 | 1011.5 |
| 20260506175103 | 4 | 322 | 1.6 | 6.4 | 0.00 | 0.00 | 0.00 | 81 | 1011.5 |
| 20260506174602 | 3 | 33 | 1.6 | 9.7 | 0.00 | 0.00 | 0.00 | 81 | 1011.5 |
| 20260506174100 | 3 | 294 | 1.6 | 11.3 | 0.00 | 0.00 | 0.00 | 81 | 1011.4 |
| 20260506173600 | 3 | 294 | 4.8 | 11.3 | 0.00 | 0.00 | 0.00 | 81 | 1011.5 |
| 20260506173131 | 3 | 0 | 0.0 | 4.8 | 0.00 | 0.00 | 0.00 | 81 | 1011.4 |
| 20260506172600 | 3 | 342 | 1.6 | 6.4 | 0.00 | 0.00 | 0.00 | 80 | 1011.4 |
| 20260506172100 | 3 | 340 | 1.6 | 6.4 | 0.00 | 0.00 | 0.00 | 81 | 1011.4 |
| 20260506171606 | 3 | 342 | 0.0 | 4.8 | 0.00 | 0.00 | 0.00 | 80 | 1011.3 |
| 20260506171100 | 3 | 0 | 1.6 | 4.8 | 0.00 | 0.00 | 0.00 | 81 | 1011.3 |
| 20260506170600 | 3 | 344 | 0.0 | 4.8 | 0.00 | 0.00 | 0.00 | 81 | 1011.3 |
| 20260506170110 | 3 | 319 | 0.0 | 3.2 | 0.00 | 0.00 | 0.00 | 81 | 1011.2 |
| 20260506165602 | 3 | 0 | 0.0 | 3.2 | 0.00 | 0.00 | 0.00 | 81 | 1011.3 |
| 20260506165059 | 3 | 319 | 0.0 | 3.2 | 0.00 | 0.00 | 0.00 | 81 | 1011.1 |
| 20260506164600 | 3 | 319 | 0.0 | 3.2 | 0.00 | 0.00 | 0.00 | 80 | 1011.1 |
| 20260506164100 | 3 | 0 | 0.0 | 3.2 | 0.00 | 0.00 | 0.00 | 81 | 1011.1 |
| 20260506163600 | 3 | 0 | 0.0 | 6.4 | 0.00 | 0.00 | 0.00 | 81 | 1011.0 |
| 20260506163101 | 3 | 0 | 1.6 | 6.4 | 0.00 | 0.00 | 0.00 | 81 | 1011.0 |
| 20260506162600 | 3 | 320 | 3.2 | 6.4 | 0.00 | 0.00 | 0.00 | 81 | 1010.9 |
| 20260506162103 | 3 | 305 | 3.2 | 6.4 | 0.00 | 0.00 | 0.00 | 81 | 1010.9 |
| 20260506161601 | 3 | 338 | 1.6 | 6.4 | 0.00 | 0.00 | 0.00 | 81 | 1010.9 |
| 20260506161102 | 3 | 339 | 3.2 | 6.4 | 0.00 | 0.00 | 0.00 | 81 | 1010.8 |
| 20260506160600 | 3 | 349 | 1.6 | 4.8 | 0.00 | 0.00 | 0.00 | 81 | 1010.8 |
| 20260506160113 | 2 | 0 | 1.6 | 4.8 | 0.00 | 0.00 | 0.00 | 81 | 1010.7 |
| 20260506155600 | 2 | 350 | 0.0 | 4.8 | 0.00 | 0.00 | 0.00 | 81 | 1010.8 |
| 20260506155059 | 2 | 350 | 0.0 | 4.8 | 0.00 | 0.00 | 0.00 | 81 | 1010.7 |
| 20260506154557 | 2 | 349 | 1.6 | 4.8 | 0.00 | 0.00 | 0.00 | 81 | 1010.6 |
| 20260506154100 | 2 | 270 | 0.0 | 4.8 | 0.00 | 0.00 | 0.00 | 81 | 1010.6 |
| 20260506153600 | 2 | 270 | 1.6 | 4.8 | 0.00 | 0.00 | 0.00 | 81 | 1010.5 |
| 20260506153100 | 2 | 0 | 0.0 | 0.0 | 0.00 | 0.00 | 0.00 | 81 | 1010.6 |
| 20260506152600 | 2 | 0 | 0.0 | 0.0 | 0.00 | 0.00 | 0.00 | 81 | 1010.6 |
| 20260506152101 | 2 | 0 | 0.0 | 0.0 | 0.00 | 0.00 | 0.00 | 80 | 1010.6 |
| 20260506151557 | 2 | 0 | 0.0 | 0.0 | 0.00 | 0.00 | 0.00 | 80 | 1010.5 |
| 20260506151100 | 2 | 0 | 0.0 | 0.0 | 0.00 | 0.00 | 0.00 | 80 | 1010.5 |
| 20260506150600 | 2 | 0 | 0.0 | 3.2 | 0.00 | 0.00 | 0.00 | 80 | 1010.4 |
| 20260506150106 | 2 | 0 | 0.0 | 4.8 | 0.00 | 0.00 | 0.00 | 79 | 1010.4 |
| 20260506145600 | 2 | 0 | 1.6 | 4.8 | 0.00 | 0.00 | 0.00 | 79 | 1010.3 |
| 20260506145101 | 2 | 0 | 1.6 | 4.8 | 0.00 | 0.00 | 0.00 | 78 | 1010.3 |
| 20260506144602 | 2 | 192 | 0.0 | 4.8 | 0.00 | 0.00 | 0.00 | 78 | 1010.3 |
| 20260506144100 | 3 | 0 | 1.6 | 6.4 | 0.00 | 0.00 | 0.00 | 78 | 1010.2 |
| 20260506143600 | 3 | 193 | 3.2 | 6.4 | 0.00 | 0.00 | 0.00 | 77 | 1010.2 |
| 20260506143100 | 3 | 256 | 0.0 | 4.8 | 0.00 | 0.00 | 0.00 | 77 | 1010.2 |
| 20260506142602 | 3 | 265 | 3.2 | 4.8 | 0.00 | 0.00 | 0.00 | 76 | 1010.2 |
| 20260506142059 | 3 | 142 | 1.6 | 3.2 | 0.00 | 0.00 | 0.00 | 76 | 1010.2 |
| 20260506141559 | 3 | 0 | 0.0 | 4.8 | 0.00 | 0.00 | 0.00 | 75 | 1010.2 |
| 20260506141100 | 3 | 120 | 1.6 | 4.8 | 0.00 | 0.00 | 0.00 | 75 | 1010.2 |
| 20260506140601 | 3 | 120 | 3.2 | 4.8 | 0.00 | 0.00 | 0.00 | 75 | 1010.2 |
| 20260506140101 | 3 | 74 | 1.6 | 4.8 | 0.00 | 0.00 | 0.00 | 74 | 1010.2 |
| 20260506135600 | 3 | 0 | 0.0 | 3.2 | 0.00 | 0.00 | 0.00 | 74 | 1010.2 |
| 20260506135100 | 3 | 0 | 0.0 | 4.8 | 0.00 | 0.00 | 0.00 | 74 | 1010.2 |
| 20260506134600 | 3 | 0 | 1.6 | 6.4 | 0.00 | 0.00 | 0.00 | 74 | 1010.1 |
| 20260506134100 | 3 | 74 | 1.6 | 9.7 | 0.00 | 0.00 | 0.00 | 74 | 1010.2 |
| 20260506133600 | 3 | 71 | 3.2 | 9.7 | 0.00 | 0.00 | 0.00 | 74 | 1010.2 |
| 20260506133115 | 3 | 69 | 4.8 | 9.7 | 0.00 | 0.00 | 0.00 | 74 | 1010.1 |
| 20260506132600 | 3 | 57 | 4.8 | 8.0 | 0.00 | 0.00 | 0.00 | 74 | 1010.1 |
| 20260506132100 | 3 | 59 | 1.6 | 8.0 | 0.00 | 0.00 | 0.00 | 73 | 1010.1 |
| 20260506131603 | 3 | 58 | 3.2 | 8.0 | 0.00 | 0.00 | 0.00 | 73 | 1010.1 |
| 20260506131100 | 3 | 58 | 4.8 | 8.0 | 0.00 | 0.00 | 0.00 | 73 | 1010.0 |
| 20260506130600 | 3 | 0 | 0.0 | 9.7 | 0.00 | 0.00 | 0.00 | 73 | 1010.1 |
| 20260506125559 | 3 | 0 | 3.2 | 9.7 | 0.00 | 0.00 | 0.00 | 73 | 1009.9 |
| 20260506125059 | 3 | 96 | 3.2 | 8.0 | 0.00 | 0.00 | 0.00 | 73 | 1010.0 |
| 20260506124601 | 3 | 92 | 3.2 | 11.3 | 0.00 | 0.00 | 0.00 | 73 | 1009.9 |
| 20260506124059 | 3 | 71 | 4.8 | 11.3 | 0.00 | 0.00 | 0.00 | 74 | 1009.8 |
| 20260506123602 | 3 | 83 | 3.2 | 8.0 | 0.00 | 0.00 | 0.00 | 73 | 1009.9 |
| 20260506123100 | 3 | 134 | 1.6 | 6.4 | 0.00 | 0.00 | 0.00 | 73 | 1009.8 |
| 20260506122600 | 3 | 139 | 1.6 | 8.0 | 0.00 | 0.00 | 0.00 | 72 | 1009.9 |
| 20260506122100 | 3 | 90 | 1.6 | 8.0 | 0.00 | 0.00 | 0.00 | 72 | 1009.8 |
| 20260506121602 | 3 | 76 | 1.6 | 6.4 | 0.00 | 0.00 | 0.00 | 72 | 1009.8 |
| 20260506121059 | 4 | 84 | 0.0 | 6.4 | 0.00 | 0.00 | 0.00 | 71 | 1009.8 |
| 20260506120600 | 4 | 57 | 3.2 | 9.7 | 0.00 | 0.00 | 0.00 | 71 | 1009.7 |
| 20260506120059 | 4 | 57 | 3.2 | 11.3 | 0.00 | 0.00 | 0.00 | 69 | 1009.7 |
| 20260506115559 | 4 | 203 | 3.2 | 19.3 | 0.00 | 0.00 | 0.00 | 68 | 1009.7 |
| 20260506115056 | 4 | 137 | 8.0 | 19.3 | 0.00 | 0.00 | 0.00 | 69 | 1009.7 |
| 20260506114600 | 4 | 180 | 6.4 | 17.7 | 0.00 | 0.00 | 0.00 | 70 | 1009.8 |
| 20260506114057 | 3 | 174 | 1.6 | 14.5 | 0.00 | 0.00 | 0.00 | 71 | 1009.7 |
| 20260506113557 | 3 | 181 | 6.4 | 14.5 | 0.00 | 0.00 | 0.00 | 71 | 1009.7 |
| 20260506113100 | 3 | 160 | 3.2 | 11.3 | 0.00 | 0.00 | 0.00 | 72 | 1009.7 |
| 20260506112559 | 3 | 155 | 4.8 | 11.3 | 0.00 | 0.00 | 0.00 | 72 | 1009.7 |
| 20260506112056 | 3 | 182 | 1.6 | 4.8 | 0.00 | 0.00 | 0.00 | 73 | 1009.8 |
| 20260506111556 | 3 | 309 | 1.6 | 6.4 | 0.00 | 0.00 | 0.00 | 73 | 1009.7 |
| 20260506111057 | 3 | 309 | 1.6 | 8.0 | 0.00 | 0.00 | 0.00 | 73 | 1009.8 |
| 20260506110557 | 3 | 300 | 1.6 | 8.0 | 0.00 | 0.00 | 0.00 | 72 | 1009.7 |
| 20260506110104 | 3 | 66 | 4.8 | 8.0 | 0.00 | 0.00 | 0.00 | 73 | 1009.7 |